Home > Weather > Helsingborg > Past weeks

Flag for Sweden Past Weather in Helsingborg, Sweden — Yesterday and Last 2 Weeks

Now
50 °F

Overcast.


Feels Like: 48 °F
Forecast: 48 / 62 °F
Wind: 5 mph from East

Location: Ljungbyhed

Current Time: May 26, 2016 at 6:46:09 AM

Latest Report: May 26, 2016 at 5:50 AM


Visibility: N/A

Pressure: 30.04 "Hg

Humidity: 94%

Dew Point: 48 °F

Location of HelsingborgLocation

Past Weather in Helsingborg — Graph

°F

Helsingborg Temperature Yesterday

Maximum temperature yesterday: 77 °F (at 12:50 PM)
Minimum temperature yesterday: 55 °F (at 11:20 PM)
Average temperature yesterday: 69 °F

High & Low Weather Summary for the Past Weeks

 TemperatureHumidityPressure
High81 °F (May 24, 11:50 AM)100% (May 11, 5:20 AM)30.04 "Hg (May 11, 5:20 AM)
Low32 °F (May 13, 5:20 AM)33% (May 12, 1:20 PM)29.53 "Hg (May 13, 6:20 PM)
Average56 °F71%29.82 "Hg
* Reported May 11 5:20 AM — May 26 5:20 AM, Helsingborg, Weather by CustomWeather, © 2016

Note: Actual official high and low records may vary slightly from our data, if they occured in-between our weather recording intervals... More about our weather records

Advertising

Helsingborg Weather History for the Previous 24 Hours

Scroll right to see more
 ConditionsComfort  
Time TempWeatherWind HumidityBarometerVisibility
5:20 AM
Thu, May 26
50 °FOvercast.6 mph94%30.04 "HgN/A
4:50 AM50 °FLow clouds.6 mph94%30.04 "HgN/A
4:20 AM50 °FPartly cloudy.8 mph100%30.04 "Hg4 mi
3:50 AM50 °FLow clouds.8 mph100%30.04 "HgN/A
3:20 AM52 °FLow clouds.7 mph94%30.04 "HgN/A
2:50 AM52 °FMostly cloudy.10 mph94%30.04 "HgN/A
2:20 AM52 °FLow clouds.9 mph100%30.04 "HgN/A
1:50 AM54 °FMostly cloudy.7 mph94%30.01 "HgN/A
1:20 AM54 °FDrizzle. Mostly cloudy.8 mph94%30.01 "HgN/A
12:50 AM54 °FLight rain. Partly cloudy.8 mph94%30.01 "HgN/A
12:20 AM54 °FLight rain. Partly cloudy.8 mph100%30.01 "HgN/A
11:50 PM
Wed, May 25
55 °FPartly cloudy.9 mph100%30.01 "HgN/A
11:20 PM55 °FHeavy rain. Mostly cloudy.9 mph94%30.01 "Hg4 mi
10:50 PM57 °FOvercast.9 mph88%30.01 "HgN/A
10:20 PM59 °FOvercast.9 mph88%29.98 "HgN/A
9:50 PM61 °FOvercast.8 mph94%29.98 "HgN/A
9:20 PM61 °FPartly sunny.3 mph88%29.95 "HgN/A
8:50 PM63 °FMild.1 mph83%29.95 "HgN/A
8:20 PM64 °FPartly sunny.3 mph88%29.95 "HgN/A
7:50 PM64 °FLight rain. Passing clouds.9 mph88%29.95 "HgN/A
7:20 PM64 °FLight rain. Broken clouds.8 mph88%29.92 "HgN/A
6:50 PM68 °FBroken clouds.8 mph78%29.92 "HgN/A
6:20 PM66 °FPartly sunny.8 mph78%29.92 "HgN/A
5:50 PM66 °FPartly sunny.7 mph83%29.92 "HgN/A
5:20 PM73 °FHeavy rain. Partly sunny.3 mph50%29.89 "Hg3 mi
4:50 PM77 °FPassing clouds.2 mph47%29.89 "HgN/A
4:20 PM75 °FPartly sunny.2 mph44%29.92 "HgN/A
3:50 PM77 °FPassing clouds.3 mph44%29.92 "HgN/A
3:20 PM77 °FPassing clouds.7 mph42%29.92 "HgN/A
2:50 PM77 °FSunny.2 mph42%29.92 "Hg10 mi
2:20 PM77 °FSunny.7 mph42%29.92 "Hg10 mi
1:50 PM77 °FPassing clouds.6 mph42%29.92 "HgN/A
1:20 PM77 °FPassing clouds.6 mph44%29.92 "HgN/A
12:50 PM77 °FPassing clouds.6 mph39%29.92 "HgN/A
12:20 PM75 °FPassing clouds.7 mph41%29.92 "HgN/A
11:50 AM73 °FSunny.8 mph47%29.92 "Hg10 mi
11:20 AM73 °FPassing clouds.5 mph44%29.92 "HgN/A
10:50 AM72 °FPassing clouds.5 mph47%29.92 "HgN/A
10:20 AM72 °FPassing clouds.5 mph50%29.92 "HgN/A
9:50 AM70 °FSunny.2 mph53%29.95 "Hg10 mi
9:20 AM66 °FPassing clouds.3 mph60%29.95 "HgN/A
8:50 AM63 °FSunny.3 mph73%29.92 "Hg10 mi
8:20 AM63 °FPassing clouds.3 mph68%29.92 "HgN/A
Weather by CustomWeather, © 2016

See weather overviewHow to use our weather pages